Orbital Elements at Epoch 2459000.5 (2020-May-31.0) TDB
Reference: JPL 23 (heliocentric ecliptic J2000)
Element | Value | Uncertainty (1-sigma) | Units |
e | .08999068840566964 | 4.0439e-08 | |
a | 2.348168376030999 | 1.077e-08 | au |
q | 2.136855087379546 | 9.5301e-08 | au |
i | 2.865989488342392 | 4.2757e-06 | deg |
node | 315.1494179416609 | 9.271e-05 | deg |
peri | .06386697228753219 | 9.6284e-05 | deg |
M | 137.667849629002 | 2.5733e-05 | deg |
tp | 2458497.900204868041 (2019-Jan-14.40020487) | 9.3985e-05 | TDB |
period | 1314.293255361403 3.60 | 9.042e-06 2.476e-08 | d yr |
n | .273911471835871 | 1.8844e-09 | deg/d |
Q | 2.559481664682453 | 1.1739e-08 | au |
|
| | Orbit Determination Parameters
Additional Information
|